Tracking 33203 objects as of 16-Feb-2026
HD Live streaming from Space Station
objects crossing your sky now

STARLINK-11415

Track STARLINK-11415 now!
10-day predictions
STARLINK-11415 is classified as:


NORAD ID: 62592
Int'l Code: 2025-008F
Perigee: 362.4 km
Apogee: 364.7 km
Inclination: 43.0 °
Period: 91.7 minutes
Semi major axis: 6734 km
RCS: Unknown
Launch date: January 13, 2025
Source: United States (US)
Launch site: AIR FORCE EASTERN TEST RANGE (AFETR)
Your satellite tracking list
Your tracking list is empty




NASA's NSSDC Master Catalog

Two Line Element Set (TLE):
1 62592U 25008F   26045.94862361  .00180946  00000-0  13821-2 0  9990
2 62592  42.9991 263.5989 0001693 280.0641  80.0035 15.70858652 63644
Source of the keplerian elements: AFSPC